Location: Chamerau
(49.1969°N, 12.7525°E)
Time: 05:05:10
(UTC+00:00)

Lacrosse 4 Rocket - Pass Details

Date: 18 September 2020
Orbit: 543 x 615 km, 68.0° (Epoch: 29 October)

Event Time Altitude Azimuth Distance (km) Brightness Sun altitude
Rises 19:20:12 0° 334° (NNW) 2,716 5.7 -20.4°
Reaches altitude 10° 19:23:23 10° 1° (N) 1,822 4.3 -20.9°
Maximum altitude 19:25:32 14° 33° (NNE) 1,590 3.6 -21.2°
Enters shadow 19:25:50 14° 38° (NE) 1,595 3.6 -21.2°
